{"data":{"norad_id":62790,"epoch":"2026-05-25T03:55:43.380192Z","epoch_age_seconds":71208,"freshness":"FRESH","line1":"1 62790U 25016F   26145.16369653  .00000118  00000+0  16341-3 0  9992","line2":"2 62790  88.9713  86.0931 0013725 226.8925 133.1078 13.51008488 69298","mean_motion":13.51008488,"eccentricity":0.0013725,"inclination_deg":88.9713,"raan_deg":86.0931,"arg_perigee_deg":226.8925,"mean_anomaly_deg":133.1078,"bstar":0.00016341,"rev_number":6929,"period_min":106.58704314521,"perigee_km":1058.3298163608,"apogee_km":1078.7709732596,"semimajor_km":7446.6873948102,"source":"CELESTRAK","updated_at":"2026-05-25T13:38:03.251727Z"}}